Flag for U.S.A. Weather past 2 weeks in Memphis, Tennessee, U.S.A.

Now
72 °F

Partly sunny.


Feels Like: 75 °F
Forecast: 60 / 76 °F
Wind: 7 mph from Southeast

Location: Memphis International Airport

Current Time: Apr 18, 2015 at 4:23:13 PM

Latest Report: Apr 18, 2015 at 3:54 PM


Visibility: 10 mi

Pressure: 29.87 "Hg

Humidity: 68%

Dew point: 61 °F

Location of MemphisLocation

Historic Weather in Memphis — Graph

°F

Memphis temperature yesterday

Maximum temperature yesterday: 74 °F (at 4:54 PM)
Minimum temperature yesterday: 65 °F (at 11:54 PM)
Average temperature yesterday: 69 °F

Past Weeks' High & Low Weather Summary

 TemperatureHumidityPressure
High84 °F (Apr 8, 1:54 PM)93% (Apr 14, 12:54 AM)30.41 "Hg (Apr 14, 12:54 AM)
Low45 °F (Apr 4, 6:54 AM)20% (Apr 4, 4:54 PM)29.82 "Hg (Apr 9, 6:54 PM)
Average66 °F66%30.05 "Hg
* Reported Apr 3 2:54 PM — Apr 18 2:54 PM, Memphis, Weather by CustomWeather, © 2015

Note: Actual official high and low records may vary slightly from our data, if they occured in-between our weather recording intervals... More about our weather records

Advertising

Memphis weather history for previous 24 hours

 ConditionsComfort  
Time TempWeatherWind HumidityBarometerVisibility
2:54 PM
Sat, Apr 18
73 °FBroken clouds.7 mph66%29.89 "Hg10 mi
1:54 PM73 °FPartly sunny.9 mph66%29.90 "Hg10 mi
1:01 PM73 °FScattered clouds.10 mph65%29.94 "Hg10 mi
11:54 AM73 °FPartly sunny.9 mph69%29.97 "Hg10 mi
11:01 AM72 °FPartly sunny.No wind73%30.01 "Hg10 mi
9:54 AM67 °FBroken clouds.7 mph81%29.96 "Hg10 mi
8:54 AM65 °FPartly sunny.8 mph87%29.95 "Hg10 mi
7:54 AM63 °FMostly cloudy.6 mph90%29.94 "Hg8 mi
6:54 AM62 °FFog.5 mph90%29.94 "Hg4 mi
5:54 AM62 °FFog.6 mph90%29.96 "Hg5 mi
4:54 AM63 °FFog.No wind90%29.97 "Hg6 mi
3:54 AM62 °FPassing clouds.No wind90%29.98 "Hg7 mi
2:54 AM62 °FPassing clouds.No wind90%29.98 "Hg8 mi
1:54 AM63 °FHigh level clouds.No wind87%29.98 "Hg9 mi
12:54 AM64 °FPassing clouds.8 mph87%29.98 "Hg9 mi
11:54 PM
Fri, Apr 17
65 °FPassing clouds.3 mph85%30.01 "Hg10 mi
10:54 PM66 °FPassing clouds.7 mph84%30.01 "Hg10 mi
9:54 PM67 °FPassing clouds.7 mph85%30.01 "Hg10 mi
8:54 PM67 °FPassing clouds.7 mph85%30.00 "Hg10 mi
7:54 PM69 °FPassing clouds.9 mph79%29.98 "Hg10 mi
6:54 PM72 °FBroken clouds.8 mph73%29.97 "Hg10 mi
5:54 PM73 °FPartly sunny.7 mph71%29.98 "Hg10 mi
4:54 PM74 °FPartly sunny.5 mph71%29.97 "Hg10 mi
Weather by CustomWeather, © 2015

See weather overviewHow to use our weather pages